When you browse on this site, cookies collect data to enhance your experience and personalize the content and advertising you see.
Visit our Privacy Policy to learn more. By continuing to use the site, you agree to this use of cookies and data.
  • En España
  • Lista de países
  • Para 7 días
  • Temperatura del agua
  • Mapa Satelital
  • El tiempo en el mapa
  • Informadores
  • user-avatar
    Iniciar sesión

    Tiempo cada hora Córdoba

    Hoy, 16 Diciembre, Domingo

    Tiempo Temperatura Precipitaciones Viento Presión Humedad
    00:00 +20°C° 0 mm 2 mps 724 mmHg 56%
    01:00 +21°C° 0 mm 1 mps 723 mmHg 58%
    02:00 +21°C° 0 mm 1 mps 723 mmHg 61%
    03:00 +21°C° 0 mm 1 mps 723 mmHg 63%
    04:00 +21°C° 0 mm 1 mps 723 mmHg 66%
    05:00 +21°C° 0 mm 1 mps 723 mmHg 69%
    06:00 +23°C° 0 mm 2 mps 723 mmHg 67%
    07:00 +25°C° 0 mm 2 mps 723 mmHg 66%
    08:00 +27°C° 0 mm 3 mps 724 mmHg 64%
    09:00 +29°C° 0 mm 3 mps 723 mmHg 61%
    10:00 +30°C° 0 mm 3 mps 723 mmHg 58%
    11:00 +33°C° 0 mm 4 mps 723 mmHg 55%
    12:00 +33°C° 0 mm 4 mps 722 mmHg 53%
    13:00 +34°C° 0 mm 4 mps 722 mmHg 52%
    14:00 +35°C° 0 mm 4 mps 721 mmHg 50%
    15:00 +34°C° 0 mm 4 mps 721 mmHg 52%
    16:00 +34°C° 0 mm 5 mps 720 mmHg 53%
    17:00 +34°C° 0 mm 5 mps 720 mmHg 55%
    18:00 +32°C° 0.1 mm 4 mps 720 mmHg 62%
    19:00 +30°C° 0.1 mm 4 mps 720 mmHg 69%
    20:00 +28°C° 0.1 mm 3 mps 720 mmHg 77%
    21:00 +28°C° 0.2 mm 3 mps 720 mmHg 79%
    22:00 +27°C° 0.2 mm 2 mps 720 mmHg 81%
    23:00 +27°C° 0.2 mm 2 mps 721 mmHg 84%

    Mañana, 17 Diciembre, Lunes

    Tiempo Temperatura Precipitaciones Viento Presión Humedad
    00:00 +26°C° 0.1 mm 2 mps 720 mmHg 84%
    01:00 +26°C° 0.1 mm 2 mps 720 mmHg 84%
    02:00 +26°C° 0.1 mm 2 mps 719 mmHg 84%
    03:00 +26°C° 0.1 mm 2 mps 719 mmHg 85%
    04:00 +25°C° 0.1 mm 1 mps 719 mmHg 86%
    05:00 +25°C° 0.1 mm 1 mps 719 mmHg 88%
    06:00 +27°C° 0 mm 1 mps 719 mmHg 81%
    07:00 +29°C° 0 mm 1 mps 719 mmHg 74%
    08:00 +30°C° 0 mm 1 mps 720 mmHg 68%
    09:00 +32°C° 1 mm 2 mps 720 mmHg 61%
    10:00 +34°C° 1 mm 2 mps 720 mmHg 55%
    11:00 +36°C° 1 mm 3 mps 720 mmHg 49%
    12:00 +36°C° 2 mm 3 mps 720 mmHg 51%
    13:00 +35°C° 2 mm 3 mps 720 mmHg 52%
    14:00 +35°C° 2 mm 3 mps 719 mmHg 54%
    15:00 +33°C° 3.1 mm 4 mps 719 mmHg 59%
    16:00 +32°C° 3.1 mm 5 mps 718 mmHg 65%
    17:00 +30°C° 3.1 mm 6 mps 718 mmHg 70%
    18:00 +28°C° 1 mm 6 mps 719 mmHg 75%
    19:00 +27°C° 1 mm 6 mps 720 mmHg 81%
    20:00 +24°C° 1 mm 6 mps 720 mmHg 86%
    21:00 +24°C° 0.8 mm 6 mps 721 mmHg 87%
    22:00 +23°C° 0.8 mm 6 mps 722 mmHg 88%
    23:00 +23°C° 0.8 mm 6 mps 723 mmHg 90%

    Pasado mañana, 18 Diciembre, Martes

    Tiempo Temperatura Precipitaciones Viento Presión Humedad
    00:00 +22°C° 0.2 mm 6 mps 722 mmHg 90%
    01:00 +22°C° 0.2 mm 5 mps 722 mmHg 90%
    02:00 +21°C° 0.2 mm 5 mps 722 mmHg 90%
    03:00 +21°C° 0.1 mm 5 mps 722 mmHg 90%
    04:00 +21°C° 0.1 mm 5 mps 723 mmHg 90%
    05:00 +21°C° 0.1 mm 5 mps 723 mmHg 90%
    06:00 +20°C° 0 mm 5 mps 724 mmHg 88%
    07:00 +20°C° 0 mm 5 mps 724 mmHg 86%
    08:00 +20°C° 0 mm 5 mps 725 mmHg 84%
    09:00 +21°C° 0 mm 5 mps 725 mmHg 79%
    10:00 +22°C° 0 mm 4 mps 725 mmHg 75%
    11:00 +23°C° 0 mm 4 mps 725 mmHg 71%
    12:00 +25°C° 0 mm 4 mps 725 mmHg 67%
    13:00 +26°C° 0 mm 4 mps 725 mmHg 64%
    14:00 +27°C° 0 mm 4 mps 724 mmHg 61%
    15:00 +27°C° 0 mm 4 mps 724 mmHg 61%
    16:00 +27°C° 0 mm 3 mps 723 mmHg 61%
    17:00 +27°C° 0 mm 3 mps 723 mmHg 61%
    18:00 +26°C° 0 mm 3 mps 723 mmHg 68%
    19:00 +24°C° 0 mm 2 mps 723 mmHg 74%
    20:00 +23°C° 0 mm 2 mps 724 mmHg 81%
    21:00 +23°C° 0 mm 2 mps 724 mmHg 84%
    22:00 +22°C° 0 mm 1 mps 724 mmHg 87%
    23:00 +22°C° 0 mm 1 mps 724 mmHg 90%

    19 Diciembre, Miércoles

    Tiempo Temperatura Precipitaciones Viento Presión Humedad
    00:00 +21°C° 0 mm 1 mps 724 mmHg 90%
    01:00 +21°C° 0 mm 1 mps 723 mmHg 90%
    02:00 +21°C° 0 mm 1 mps 723 mmHg 91%
    03:00 +21°C° 0 mm 1 mps 722 mmHg 92%
    04:00 +19°C° 0 mm 2 mps 722 mmHg 93%
    05:00 +19°C° 0 mm 2 mps 722 mmHg 94%
    06:00 +21°C° 0 mm 2 mps 722 mmHg 88%
    07:00 +22°C° 0 mm 3 mps 723 mmHg 83%
    08:00 +24°C° 0 mm 3 mps 723 mmHg 77%
    09:00 +26°C° 0 mm 4 mps 722 mmHg 70%
    10:00 +28°C° 0 mm 4 mps 722 mmHg 63%
    11:00 +30°C° 0 mm 4 mps 722 mmHg 55%
    12:00 +30°C° 0 mm 4 mps 721 mmHg 55%
    13:00 +30°C° 0 mm 5 mps 721 mmHg 55%
    14:00 +32°C° 0 mm 5 mps 720 mmHg 56%
    15:00 +30°C° 0.2 mm 5 mps 719 mmHg 59%
    16:00 +29°C° 0.2 mm 5 mps 719 mmHg 62%
    17:00 +29°C° 0.2 mm 5 mps 718 mmHg 65%
    18:00 +27°C° 0.4 mm 4 mps 718 mmHg 73%
    19:00 +26°C° 0.4 mm 3 mps 718 mmHg 80%
    20:00 +24°C° 0.4 mm 2 mps 718 mmHg 87%
    21:00 +24°C° 0.2 mm 2 mps 719 mmHg 88%
    22:00 +22°C° 0.2 mm 3 mps 719 mmHg 90%
    23:00 +22°C° 0.2 mm 3 mps 719 mmHg 91%

    20 Diciembre, Jueves

    Tiempo Temperatura Precipitaciones Viento Presión Humedad
    00:00 +22°C° 0.1 mm 3 mps 719 mmHg 90%
    01:00 +23°C° 0.1 mm 2 mps 718 mmHg 90%
    02:00 +23°C° 0.1 mm 1 mps 718 mmHg 89%
    03:00 +23°C° 0.8 mm 2 mps 718 mmHg 88%
    04:00 +23°C° 0.8 mm 2 mps 719 mmHg 86%
    05:00 +21°C° 0.8 mm 3 mps 719 mmHg 84%
    06:00 +24°C° 0 mm 3 mps 719 mmHg 71%
    07:00 +27°C° 0 mm 4 mps 720 mmHg 58%
    08:00 +29°C° 0 mm 4 mps 720 mmHg 45%
    09:00 +30°C° 0 mm 5 mps 720 mmHg 42%
    10:00 +32°C° 0 mm 5 mps 720 mmHg 39%
    11:00 +33°C° 0 mm 6 mps 721 mmHg 35%
    12:00 +34°C° 0 mm 6 mps 720 mmHg 36%
    13:00 +34°C° 0 mm 6 mps 720 mmHg 36%
    14:00 +34°C° 0 mm 6 mps 720 mmHg 37%
    15:00 +34°C° 0 mm 6 mps 719 mmHg 39%
    16:00 +33°C° 0 mm 6 mps 719 mmHg 41%
    17:00 +33°C° 0 mm 5 mps 719 mmHg 44%
    18:00 +30°C° 0 mm 5 mps 719 mmHg 49%
    19:00 +28°C° 0 mm 4 mps 720 mmHg 55%
    20:00 +26°C° 0 mm 3 mps 720 mmHg 60%
    21:00 +25°C° 0 mm 2 mps 720 mmHg 61%
    22:00 +24°C° 0 mm 2 mps 721 mmHg 62%
    23:00 +24°C° 0 mm 2 mps 721 mmHg 63%

    21 Diciembre, Viernes

    Tiempo Temperatura Precipitaciones Viento Presión Humedad
    00:00 +23°C° 0 mm 2 mps 721 mmHg 63%
    01:00 +23°C° 0 mm 2 mps 720 mmHg 63%
    02:00 +21°C° 0 mm 2 mps 720 mmHg 63%
    03:00 +22°C° 0 mm 1 mps 720 mmHg 63%
    04:00 +22°C° 0 mm 1 mps 720 mmHg 62%
    05:00 +22°C° 0 mm 1 mps 720 mmHg 62%
    06:00 +24°C° 0 mm 1 mps 721 mmHg 56%
    07:00 +26°C° 0 mm 1 mps 721 mmHg 50%
    08:00 +28°C° 0 mm 1 mps 722 mmHg 44%
    09:00 +30°C° 0 mm 1 mps 722 mmHg 41%
    10:00 +31°C° 0 mm 2 mps 722 mmHg 38%
    11:00 +34°C° 0 mm 3 mps 721 mmHg 35%
    12:00 +34°C° 0 mm 3 mps 721 mmHg 34%
    13:00 +35°C° 0 mm 3 mps 720 mmHg 33%
    14:00 +35°C° 0 mm 3 mps 720 mmHg 32%
    15:00 +35°C° 0 mm 4 mps 719 mmHg 34%
    16:00 +34°C° 0 mm 4 mps 719 mmHg 36%
    17:00 +34°C° 0 mm 5 mps 719 mmHg 38%
    18:00 +32°C° 0 mm 4 mps 719 mmHg 45%
    19:00 +29°C° 0 mm 3 mps 719 mmHg 53%
    20:00 +26°C° 0 mm 2 mps 720 mmHg 60%
    21:00 +26°C° 0.3 mm 2 mps 720 mmHg 64%
    22:00 +25°C° 0.3 mm 2 mps 721 mmHg 68%
    23:00 +24°C° 0.3 mm 2 mps 721 mmHg 72%
    Mostrar más